Regional Weather Roundup
Issued by NWS

Home | Current Version | Previous Version | Graphics & Text | Print | Product List | Glossary On
Versions: 1 2 3 4 5 6 7 8 9 10 11 12 13 14 15 16 17 18 19 20 21 22 23 24 25 26 27 28 29 30 31 32 33 34 35 36 37 38 39 40 41 42 43 44 45 46 47 48 49 50
290
ASUS43 KLMK 281610
RWRKY
KENTUCKY REGIONAL WEATHER ROUNDUP
NATIONAL WEATHER SERVICE LOUISVILLE KY
1200 PM EDT SUN AUG 28 2016

NOTE "FAIR" INDICATES FEW OR NO CLOUDS BELOW 12,000 FEET
WITH NO SIGNIFICANT WEATHER AND/OR OBSTRUCTIONS TO VISIBILITY.

KYZ001>023-026-027-061>063-070>075-281700-
WESTERN AND SOUTH CENTRAL KENTUCKY

CITY           SKY/WX    TMP DP  RH WIND       PRES   REMARKS
PADUCAH        SUNNY     88  74  63 NE5       30.16S HX  96
HENDERSON      SUNNY     88  75  66 NE7       30.16S HX  97
OWENSBORO      SUNNY     89  77  67 VRB6      30.18F HX 101
HOPKINSVILLE   SUNNY     87  74  66 SE5       30.17F HX  94
BOWLING GREEN  SUNNY     89  74  60 CALM      30.18F HX  98
GLASGOW        MOSUNNY   87  73  61 CALM      30.20S HX  94
$$

KYZ024-025-028>034-038-045-046-053-281700-
NORTH CENTRAL KENTUCKY

CITY           SKY/WX    TMP DP  RH WIND       PRES   REMARKS
LOUISVILLE/SDF MOSUNNY   89  72  56 E3        30.19S HX  96
LOUISVILLE/LOU MOSUNNY   89  72  56 NE5       30.20S HX  96
FORT KNOX      SUNNY     85  73  66 E3        30.19S HX  92
$$

KYZ035>037-039>044-047>052-055>060-089>105-281700-
NORTHEAST KENTUCKY

CITY           SKY/WX    TMP DP  RH WIND       PRES   REMARKS
LEXINGTON      MOSUNNY   87  72  60 CALM      30.22S HX  93
COVINGTON      MOSUNNY   87  73  62 NE6       30.22S HX  94
FRANKFORT      SUNNY     88  72  58 NE3       30.20S HX  94
$$

KYZ054-064>069-076>088-106>120-281700-
SOUTHEAST KENTUCKY

CITY           SKY/WX    TMP DP  RH WIND       PRES   REMARKS
JACKSON        CLOUDY    85  72  65 SE3       30.24S HX  91
LONDON         MOSUNNY   84  70  62 S3        30.23S
SOMERSET       SUNNY     82  68  61 CALM      30.23S
MIDDLESBORO    SUNNY     86  71  60 CALM      30.23F HX  92
MONTICELLO     SUNNY    N/A N/A N/A VRB6      30.23S
$$





USA.gov is the U.S. government's official web portal to all federal, state and local government web resources and services.